EW7034 Weather Reports


time (UTC)temp
C
wind
direction
speed
KPH
gust
KPH
rain 1hr
cm
rain 24hr
cm
rain mn
cm
humidity
%
barometer
mb
20260508020009 5 0.0 0.0 0.00 0.00 0.00 90 1014.4
20260508014504 5 0.0 0.0 0.00 0.00 0.00 90 1014.3
20260508013007 5 0.0 0.0 0.00 0.00 0.00 90 1014.3
20260508011513 5 0.0 0.0 0.00 0.00 0.00 90 1014.2
20260508010007 5 0.0 0.0 0.00 0.00 0.00 89 1014.3
20260508004508 6 0.0 0.0 0.00 0.00 0.00 88 1014.3
20260508003007 6 0.0 0.0 0.00 0.00 0.00 88 1014.3
20260508001520 6 0.0 0.0 0.00 0.00 0.00 88 1014.3
20260508000007 6 0.0 0.0 0.00 0.00 0.00 88 1014.4
20260507234506 6 0.0 0.0 0.00 0.00 0.00 87 1014.4
20260507233019 6 0.0 0.0 0.00 0.00 0.00 85 1014.4
20260507231511 7 0.0 0.0 0.00 0.00 0.00 84 1014.3
20260507230025 7 0.0 0.0 0.00 0.00 0.00 82 1014.3
20260507224527 8 0.0 0.0 0.00 0.00 0.00 81 1014.2
20260507223024 8 0.0 0.0 0.00 0.00 0.00 83 1014.1
20260507221527 8 0.0 0.0 0.00 0.00 0.00 82 1014.1
20260507220015 8 0.0 0.0 0.00 0.00 0.00 81 1014.1
20260507214516 8 0.0 0.0 0.00 0.00 0.00 79 1014.1
20260507213020 9 0.0 0.0 0.00 0.00 0.00 78 1013.9
20260507211537 10 0.0 0.0 0.00 0.00 0.00 76 1013.9
20260507210029 10 0.0 0.0 0.00 0.00 0.00 75 1013.8
20260507204510 10 0.0 0.0 0.00 0.00 0.00 74 1013.8
20260507203017 10 0.0 0.0 0.00 0.00 0.00 74 1013.5
20260507201533 10 0.0 0.0 0.00 0.00 0.00 74 1013.4
20260507200033 11 0.0 0.0 0.00 0.00 0.00 73 1013.3
20260507194526 11 0.0 0.0 0.00 0.00 0.00 72 1013.2
20260507193017 11 0.0 0.0 0.00 0.00 0.00 72 1013.1
20260507191524 11 0.0 0.0 0.00 0.00 0.00 71 1013.1
20260507190022 12 0.0 0.0 0.00 0.00 0.00 70 1013.0
20260507184526 12 0.0 0.0 0.00 0.00 0.00 69 1012.9
20260507183031 12 0.0 0.0 0.00 0.00 0.00 68 1012.8
20260507181517 12 0.0 0.0 0.00 0.00 0.00 69 1012.6
20260507180037 12 0.0 0.0 0.00 0.00 0.00 68 1012.5
20260507174526 12 0.0 0.0 0.00 0.00 0.00 67 1012.6
20260507173028 13 0.0 0.0 0.00 0.00 0.00 63 1012.5
20260507171527 13 0.0 0.0 0.00 0.00 0.00 63 1012.5
20260507170039 13 0.0 0.0 0.00 0.00 0.00 61 1012.5
20260507164525 12 0.0 0.0 0.00 0.00 0.00 64 1012.4
20260507163025 12 0.0 0.0 0.00 0.00 0.00 64 1012.5
20260507161526 12 0.0 0.0 0.00 0.00 0.00 71 1012.5
20260507160026 13 0.0 0.0 0.00 0.00 0.00 74 1012.5
20260507154523 13 0.0 0.0 0.00 0.00 0.00 74 1012.5
20260507153025 13 0.0 0.0 0.00 0.00 0.00 74 1012.5
20260507151525 13 0.0 0.0 0.00 0.00 0.00 72 1012.4
20260507150026 13 0.0 0.0 0.00 0.00 0.00 65 1012.5
20260507144524 13 0.0 0.0 0.00 0.00 0.00 64 1012.6
20260507143025 13 0.0 0.0 0.00 0.00 0.00 65 1012.7
20260507141508 13 0.0 0.0 0.00 0.00 0.00 63 1012.9
20260507140011 12 0.0 0.0 0.00 0.00 0.00 63 1013.1
20260507134519 12 0.0 0.0 0.00 0.00 0.00 68 1013.1
20260507133023 13 0.0 0.0 0.00 0.00 0.00 62 1013.0
20260507131528 13 0.0 0.0 0.00 0.00 0.00 61 1013.1
20260507130011 13 0.0 0.0 0.00 0.00 0.00 59 1013.2
20260507124515 13 0.0 0.0 0.00 0.00 0.00 55 1013.1
20260507123023 14 0.0 0.0 0.00 0.00 0.00 56 1013.1
20260507121525 14 0.0 0.0 0.00 0.00 0.00 55 1013.1
20260507120028 14 0.0 0.0 0.00 0.00 0.00 53 1013.2
20260507114512 14 0.0 0.0 0.00 0.00 0.00 54 1013.2
20260507113023 14 0.0 0.0 0.00 0.00 0.00 55 1013.2
20260507111523 14 0.0 0.0 0.00 0.00 0.00 56 1013.2
20260507110024 13 0.0 0.0 0.00 0.00 0.00 54 1013.2
20260507104523 13 0.0 0.0 0.00 0.00 0.00 57 1013.1
20260507103018 13 0.0 0.0 0.00 0.00 0.00 58 1013.3
20260507101521 13 0.0 0.0 0.00 0.00 0.00 58 1013.4
20260507100023 13 0.0 0.0 0.00 0.00 0.00 57 1013.4
20260507094525 13 0.0 0.0 0.00 0.00 0.00 60 1013.3
20260507093028 13 0.0 0.0 0.00 0.00 0.00 58 1013.5
20260507091524 13 0.0 0.0 0.00 0.00 0.00 61 1013.5
20260507090024 12 0.0 0.0 0.00 0.00 0.00 59 1013.4
20260507084539 12 0.0 0.0 0.00 0.00 0.00 63 1013.5
20260507083010 12 0.0 0.0 0.00 0.00 0.00 64 1013.5
20260507081530 11 0.0 0.0 0.00 0.00 0.00 65 1013.6
20260507080021 12 0.0 0.0 0.00 0.00 0.00 62 1013.6
20260507074506 11 0.0 0.0 0.00 0.00 0.00 67 1013.6
20260507073009 12 0.0 0.0 0.00 0.00 0.00 69 1013.5
20260507071520 10 0.0 0.0 0.00 0.00 0.00 72 1013.4
20260507070019 10 0.0 0.0 0.00 0.00 0.00 71 1013.3
20260507064523 10 0.0 0.0 0.00 0.00 0.00 77 1013.4
20260507063008 10 0.0 0.0 0.00 0.00 0.00 80 1013.4
20260507061512 8 0.0 0.0 0.00 0.00 0.00 86 1013.5
20260507060021 7 0.0 0.0 0.00 0.00 0.00 88 1013.5
20260507054523 7 0.0 0.0 0.00 0.00 0.00 90 1013.5
20260507053025 6 0.0 0.0 0.00 0.00 0.00 89 1013.4
20260507051506 6 0.0 0.0 0.00 0.00 0.00 89 1013.4
20260507050033 6 0.0 0.0 0.00 0.00 0.00 89 1013.3
20260507044518 6 0.0 0.0 0.00 0.00 0.00 89 1013.3
20260507043024 6 0.0 0.0 0.00 0.00 0.00 88 1013.4
20260507041526 6 0.0 0.0 0.00 0.00 0.00 89 1013.4
20260507040012 6 0.0 0.0 0.00 0.00 0.00 89 1013.4
20260507034521 6 0.0 0.0 0.00 0.00 0.00 90 1013.4
20260507033022 6 0.0 0.0 0.00 0.00 0.00 90 1013.4
20260507031523 6 0.0 0.0 0.00 0.00 0.00 89 1013.5
20260507030024 7 0.0 0.0 0.00 0.00 0.00 89 1013.6
20260507024516 7 0.0 0.0 0.00 0.00 0.00 89 1013.5
20260507023021 7 0.0 0.0 0.00 0.00 0.00 89 1013.6
20260507021530 7 0.0 0.0 0.00 0.00 0.00 89 1013.4